| time (UTC) | temp F | wind direction | speed MPH | gust MPH | rain 1hr in | rain 24hr in | rain mn in | humidity % | barometer mb |
| 20260504221538 | 58 | 207 | 6.0 | 12.0 | 0.00 | 0.00 | 0.00 | 67 | 1011.2 |
| 20260504220035 | 59 | 312 | 3.0 | 10.0 | 0.00 | 0.00 | 0.00 | 66 | 1011.3 |
| 20260504214535 | 59 | 204 | 5.0 | 10.0 | 0.00 | 0.00 | 0.00 | 65 | 1011.3 |
| 20260504213049 | 61 | 155 | 5.0 | 12.0 | 0.00 | 0.00 | 0.00 | 62 | 1011.2 |
| 20260504211535 | 61 | 249 | 6.0 | 17.0 | 0.00 | 0.00 | 0.00 | 61 | 1011.1 |
| 20260504210038 | 61 | 239 | 6.0 | 15.0 | 0.00 | 0.00 | 0.00 | 60 | 1011.2 |
| 20260504204542 | 63 | 225 | 5.0 | 16.0 | 0.00 | 0.00 | 0.00 | 56 | 1011.1 |
| 20260504203035 | 63 | 204 | 7.0 | 17.0 | 0.00 | 0.00 | 0.00 | 53 | 1011.0 |
| 20260504201530 | 64 | 267 | 4.0 | 10.0 | 0.00 | 0.00 | 0.00 | 54 | 1011.1 |
| 20260504200033 | 64 | 205 | 5.0 | 13.0 | 0.00 | 0.00 | 0.00 | 53 | 1011.2 |
| 20260504194528 | 64 | 147 | 7.0 | 18.0 | 0.00 | 0.00 | 0.00 | 52 | 1011.2 |
| 20260504193027 | 65 | 197 | 5.0 | 15.0 | 0.00 | 0.00 | 0.00 | 51 | 1011.3 |
| 20260504191525 | 65 | 158 | 6.0 | 17.0 | 0.00 | 0.00 | 0.00 | 49 | 1011.4 |
| 20260504190023 | 65 | 207 | 6.0 | 15.0 | 0.00 | 0.00 | 0.00 | 50 | 1011.5 |
| 20260504184521 | 64 | 208 | 6.0 | 15.0 | 0.00 | 0.00 | 0.00 | 51 | 1011.7 |
| 20260504183021 | 64 | 222 | 5.0 | 15.0 | 0.00 | 0.00 | 0.00 | 50 | 1011.9 |
| 20260504181518 | 65 | 190 | 5.0 | 13.0 | 0.00 | 0.00 | 0.00 | 48 | 1012.0 |
| 20260504180018 | 65 | 195 | 5.0 | 16.0 | 0.00 | 0.00 | 0.00 | 45 | 1012.2 |
| 20260504174514 | 66 | 288 | 3.0 | 10.0 | 0.00 | 0.00 | 0.00 | 44 | 1012.2 |
| 20260504173014 | 65 | 300 | 6.0 | 15.0 | 0.00 | 0.00 | 0.00 | 42 | 1012.4 |
| 20260504171513 | 65 | 266 | 5.0 | 18.0 | 0.00 | 0.00 | 0.00 | 43 | 1012.3 |
| 20260504160109 | 63 | 288 | 4.0 | 12.0 | 0.00 | 0.00 | 0.00 | 45 | 1013.3 |
| 20260504150107 | 62 | 206 | 5.0 | 11.0 | 0.00 | 0.00 | 0.00 | 47 | 1014.0 |
| 20260504081537 | 39 | 222 | 0.0 | 0.0 | 0.00 | 0.00 | 0.00 | 87 | 1013.8 |
| 20260504050021 | 39 | 222 | 0.0 | 0.0 | 0.00 | 0.00 | 0.00 | 81 | 1013.3 |
| 20260504044524 | 39 | 223 | 0.0 | 0.0 | 0.00 | 0.00 | 0.00 | 80 | 1013.3 |
| 20260504043022 | 40 | 222 | 0.0 | 1.0 | 0.00 | 0.00 | 0.00 | 79 | 1013.2 |
| 20260504041512 | 40 | 222 | 0.0 | 1.0 | 0.00 | 0.00 | 0.00 | 79 | 1013.1 |
| 20260504040011 | 40 | 222 | 0.0 | 1.0 | 0.00 | 0.00 | 0.00 | 79 | 1013.1 |
| 20260504034508 | 41 | 300 | 0.0 | 1.0 | 0.00 | 0.00 | 0.00 | 76 | 1013.0 |
| 20260504033008 | 41 | 300 | 0.0 | 0.0 | 0.00 | 0.00 | 0.00 | 75 | 1012.9 |
| 20260504031505 | 41 | 300 | 0.0 | 0.0 | 0.00 | 0.00 | 0.00 | 74 | 1012.9 |
| 20260504030004 | 41 | 300 | 0.0 | 1.0 | 0.00 | 0.00 | 0.00 | 72 | 1012.8 |
| 20260504024503 | 42 | 300 | 0.0 | 1.0 | 0.00 | 0.00 | 0.00 | 70 | 1012.8 |
| 20260504023003 | 42 | 300 | 0.0 | 1.0 | 0.00 | 0.00 | 0.00 | 67 | 1012.8 |
| 20260504021505 | 42 | 300 | 0.0 | 0.0 | 0.00 | 0.00 | 0.00 | 66 | 1012.8 |
| 20260504020108 | 43 | 300 | 0.0 | 0.0 | 0.00 | 0.00 | 0.00 | 63 | 1012.7 |
| 20260504014608 | 43 | 300 | 0.0 | 1.0 | 0.00 | 0.00 | 0.00 | 62 | 1012.5 |
| 20260504013058 | 44 | 299 | 0.0 | 0.0 | 0.00 | 0.00 | 0.00 | 61 | 1012.5 |
| 20260504011556 | 45 | 300 | 0.0 | 0.0 | 0.00 | 0.00 | 0.00 | 56 | 1012.2 |
| 20260504010055 | 46 | 299 | 0.0 | 1.0 | 0.00 | 0.00 | 0.00 | 52 | 1012.0 |
| 20260504004554 | 47 | 300 | 0.0 | 0.0 | 0.00 | 0.00 | 0.00 | 49 | 1011.7 |
| 20260504003055 | 49 | 300 | 0.0 | 0.0 | 0.00 | 0.00 | 0.00 | 46 | 1011.5 |
| 20260504001604 | 50 | 300 | 0.0 | 0.0 | 0.00 | 0.00 | 0.00 | 43 | 1011.3 |
| 20260504000056 | 51 | 300 | 0.0 | 0.0 | 0.00 | 0.00 | 0.00 | 41 | 1011.3 |
| 20260503234552 | 52 | 300 | 0.0 | 1.0 | 0.00 | 0.00 | 0.00 | 40 | 1011.1 |
| 20260503233051 | 53 | 343 | 1.0 | 4.0 | 0.00 | 0.00 | 0.00 | 40 | 1010.9 |
| 20260503231553 | 54 | 284 | 1.0 | 3.0 | 0.00 | 0.00 | 0.00 | 38 | 1010.8 |
| 20260503230051 | 54 | 56 | 2.0 | 8.0 | 0.00 | 0.00 | 0.00 | 38 | 1010.8 |
| 20260503224550 | 54 | 67 | 0.0 | 3.0 | 0.00 | 0.00 | 0.00 | 38 | 1010.8 |
| 20260503223050 | 55 | 18 | 0.0 | 3.0 | 0.00 | 0.00 | 0.00 | 37 | 1010.5 |